Weather History for PHNG - April, 2013

Change the Weather History Date:

Saturday, April 20, 2013

  Actual Average Record
Temperature  
Mean Temperature 76 °F -  
Max Temperature 81 °F 76 °F - (-1)
Min Temperature 71 °F 68 °F - (-1)
Cooling Degree Days 11    
Growing Degree Days 26 (Base 50)    
Moisture  
Dew Point 69 °F    
Average Humidity 81    
Maximum Humidity 100    
Minimum Humidity 60    
Precipitation  
Precipitation 0.00 in - - ()
Sea Level Pressure  
Sea Level Pressure 30.05 in    
Wind  
Wind Speed 4 mph (East)    
Max Wind Speed 9 mph    
Max Gust Speed -    
Visibility 9 miles    
Events Rain    
Averages and records for this station are not official NWS values.
T = Trace of Precipitation, MM = Missing Value Source: NWS Daily Summary

Daily Weather History Graph

Daily Weather History Graph

Search for Another Location

Airport or City:

Trip Planner

Search our weather history database for the weather conditions in past years. The results will help you decide how hot, cold, wet, or windy it might be!

Date:

Astronomy

Apr. 20, 2013 Rise Set
Actual Time 6:07 AM HST 6:52 PM HST
Civil Twilight 5:44 AM HST 7:15 PM HST
Nautical Twilight 5:17 AM HST 7:42 PM HST
Astronomical Twilight 4:50 AM HST 8:09 PM HST
Moon 2:23 PM HST (4/20) 2:24 AM HST (4/20)
Length of Visible Light 13h 30m
Length of Day
12h 44m
Waxing Gibbous, 73% of the Moon is Illuminated
Apr 20
Waxing Gibbous
Apr 25
Full
May 2
Last Quarter
May 9
New
May 17
First Quarter

Hourly Weather History & Observations

Time (HST) Temp. Heat Index Dew Point Humidity Pressure Visibility Wind Dir Wind Speed Gust Speed Precip Events Conditions
12:57 AM 71.6 °F - 66.0 °F 82% 30.07 in 10.0 mi ESE 8.1 mph - N/A   Overcast
1:57 AM 71.6 °F - 66.9 °F 85% 30.06 in 10.0 mi East 4.6 mph - N/A   Mostly Cloudy
2:57 AM - - - N/A% 30.04 in 10.0 mi Calm Calm - N/A   Mostly Cloudy
3:26 AM - - - N/A% 30.04 in 6.2 mi ENE 3.5 mph - N/A   Mostly Cloudy
3:35 AM - - - N/A% 30.04 in 6.2 mi Calm Calm - N/A   Scattered Clouds
3:57 AM - - - N/A% 30.03 in 10.0 mi Calm Calm - N/A   Mostly Cloudy
4:00 AM - - - N/A% - - North - - N/A   Unknown
4:57 AM 71.6 °F - 71.1 °F 98% 30.03 in 10.0 mi Calm Calm - N/A   Clear
5:57 AM - - - N/A% 30.05 in 10.0 mi SSE 3.5 mph - N/A   Clear
6:43 AM 71.6 °F - 71.6 °F 100% 30.08 in 6.2 mi Calm Calm - 0.00 in Rain Light Rain
6:57 AM 71.6 °F - 71.1 °F 98% 30.07 in 10.0 mi Calm Calm - 0.00 in   Overcast
7:11 AM 73.4 °F - 71.6 °F 94% 30.09 in 6.2 mi Calm Calm - N/A   Overcast
7:24 AM 73.4 °F - 71.6 °F 94% 30.09 in 6.2 mi Calm Calm - N/A   Overcast
7:57 AM 73.4 °F - 71.1 °F 92% 30.07 in 10.0 mi Calm Calm - N/A   Scattered Clouds
8:57 AM 76.5 °F - 70.0 °F 80% 30.08 in 10.0 mi East 8.1 mph - N/A   Mostly Cloudy
9:57 AM 79.7 °F - 66.0 °F 63% 30.09 in 10.0 mi ENE 6.9 mph - N/A   Scattered Clouds
10:57 AM 79.7 °F - 68.7 °F 69% 30.08 in 10.0 mi ENE 6.9 mph - N/A   Scattered Clouds
11:57 AM 78.8 °F - 68.7 °F 71% 30.07 in 10.0 mi ENE 8.1 mph - N/A   Partly Cloudy
12:57 PM 81.3 °F 83.5 °F 66.0 °F 60% 30.05 in 10.0 mi ENE 6.9 mph - N/A   Scattered Clouds
1:57 PM 80.2 °F 82.6 °F 66.9 °F 64% 30.03 in 10.0 mi East 9.2 mph - N/A   Scattered Clouds
2:57 PM 80.4 °F 82.4 °F 66.0 °F 61% 30.01 in 10.0 mi Variable 5.8 mph - N/A   Scattered Clouds
3:57 PM 78.6 °F - 64.9 °F 63% 30.01 in 10.0 mi ENE 6.9 mph - N/A   Scattered Clouds
4:57 PM 77.7 °F - 66.9 °F 69% 30.01 in 10.0 mi East 5.8 mph - N/A   Mostly Cloudy
5:04 PM - - - N/A% 30.02 in 6.2 mi East 5.8 mph - N/A   Overcast
5:17 PM 77.0 °F - 66.2 °F 69% 30.02 in 6.2 mi East 5.8 mph - N/A   Mostly Cloudy
5:57 PM 75.9 °F - 66.0 °F 71% 30.01 in 10.0 mi ESE 4.6 mph - N/A   Mostly Cloudy
6:21 PM - - - N/A% - - North - - N/A   Unknown
6:57 PM 73.9 °F - 66.9 °F 79% 30.02 in 10.0 mi Calm Calm - N/A   Mostly Cloudy
7:57 PM 73.9 °F - 69.1 °F 85% 30.04 in 10.0 mi Calm Calm - N/A   Partly Cloudy
8:00 PM - - - N/A% - - North - - N/A   Unknown
8:57 PM 72.9 °F - 69.1 °F 88% 30.05 in 10.0 mi Calm Calm - N/A   Scattered Clouds
9:04 PM 73.4 °F - 69.8 °F 88% 30.07 in 6.2 mi Calm Calm - N/A   Overcast
9:23 PM 73.4 °F - 69.8 °F 88% 30.07 in 6.2 mi Calm Calm - N/A   Scattered Clouds
9:57 PM 72.9 °F - 70.0 °F 91% 30.06 in 10.0 mi Calm Calm - N/A   Partly Cloudy
10:57 PM 73.9 °F - 73.0 °F 97% 30.06 in 10.0 mi Calm Calm - N/A   Partly Cloudy
11:57 PM 72.5 °F - 69.1 °F 89% 30.04 in 10.0 mi Calm Calm - N/A   Clear